This is the latest recevied weather packets stored in our database for station/object KN6WGU. If no packets are shown the sender has not sent any weather packets the latest 10 day(s).
| Time | Temp. | Humidity | Pressure | Rain* | Wind** | Luminosity | Snow |
|---|---|---|---|---|---|---|---|
| 1788366544 | 32.22° C | 64% | 1009.6 hPa | 0 mm | - | 114 W/m² | - |
| 1788366240 | 31.67° C | 63% | 1009.5 hPa | 0 mm | - | 105 W/m² | - |
| 1788365939 | 31.67° C | 65% | 1009.7 hPa | 0 mm | - | 94 W/m² | - |
| 1788365635 | 31.67° C | 64% | 1009.7 hPa | 0 mm | - | 94 W/m² | - |
| 1788365331 | 31.67° C | 63% | 1009.7 hPa | 0 mm | - | 86 W/m² | - |
| 1788365026 | 31.67° C | 67% | 1009.6 hPa | 0 mm | - | 95 W/m² | - |
| 1788364724 | 31.67° C | 64% | 1009.5 hPa | 0 mm | - | 114 W/m² | - |
| 1788364423 | 31.67° C | 64% | 1009.7 hPa | 0 mm | - | 89 W/m² | - |
| 1788364118 | 31.11° C | 66% | 1009.7 hPa | 0 mm | - | 91 W/m² | - |
| 1788363814 | 31.11° C | 67% | 1009.9 hPa | 0 mm | - | 126 W/m² | - |
| 1788363513 | 31.11° C | 68% | 1009.6 hPa | 0 mm | - | 123 W/m² | - |
| 1788363212 | 31.11° C | 71% | 1009.8 hPa | 0 mm | - | 90 W/m² | - |
| 1788362908 | 30.56° C | 70% | 1009.8 hPa | 0 mm | - | 85 W/m² | - |
| 1788362604 | 30.56° C | 68% | 1009.6 hPa | 0 mm | - | 82 W/m² | - |
| 1788362299 | 30.56° C | 71% | 1009.8 hPa | 0 mm | - | 84 W/m² | - |
| 1788361994 | 30.56° C | 71% | 1009.7 hPa | 0 mm | - | 84 W/m² | - |
| 1788361689 | 30.56° C | 70% | 1009.8 hPa | 0 mm | - | 89 W/m² | - |
| 1788361386 | 30.56° C | 71% | 1009.7 hPa | 0 mm | - | 108 W/m² | - |
| 1788361085 | 30.56° C | 70% | 1009.9 hPa | 0 mm | - | 121 W/m² | - |
| 1788360780 | 30.56° C | 71% | 1009.9 hPa | 0 mm | - | 145 W/m² | - |
| 1788360475 | 30° C | 71% | 1009.7 hPa | 0 mm | - | 148 W/m² | - |
| 1788360171 | 30° C | 72% | 1009.7 hPa | 0 mm | - | 137 W/m² | - |
| 1788359866 | 29.44° C | 74% | 1009.9 hPa | 0 mm | - | 111 W/m² | - |
| 1788359561 | 29.44° C | 73% | 1009.8 hPa | 0 mm | - | 117 W/m² | - |
| 1788359256 | 29.44° C | 74% | 1009.7 hPa | 0 mm | - | 107 W/m² | - |
* Rain latest hour (hover to see other rain measurements)
** Current wind speed in m/s (hover to see current wind gust speed)